TimeMDT,TemperatureF,Dew PointF,Humidity,Sea Level PressureIn,VisibilityMPH,Wind Direction,Wind SpeedMPH,Gust SpeedMPH,PrecipitationIn,Events,Conditions,WindDirDegrees,DateUTC
12:53 AM,42.1,19.0,40,30.15,10.0,WNW,23.0,29.9,N/A,,Clear,300,2012-10-18 06:53:00
1:53 AM,42.1,18.0,38,30.16,10.0,WNW,20.7,27.6,N/A,,Clear,300,2012-10-18 07:53:00
2:53 AM,39.9,18.0,41,30.19,10.0,NW,16.1,-,N/A,,Clear,310,2012-10-18 08:53:00
3:53 AM,39.0,18.0,43,30.19,10.0,NW,18.4,-,N/A,,Clear,310,2012-10-18 09:53:00
4:53 AM,39.0,19.0,45,30.21,10.0,NW,21.9,27.6,N/A,,Clear,310,2012-10-18 10:53:00
5:53 AM,35.1,19.0,52,30.23,10.0,WNW,18.4,-,N/A,,Clear,290,2012-10-18 11:53:00
6:53 AM,34.0,19.0,54,30.26,10.0,WNW,10.4,-,N/A,,Clear,290,2012-10-18 12:53:00
7:53 AM,33.1,18.0,54,30.27,10.0,WNW,6.9,-,N/A,,Partly Cloudy,290,2012-10-18 13:53:00
8:53 AM,37.0,19.9,50,30.27,10.0,North,4.6,-,N/A,,Partly Cloudy,350,2012-10-18 14:53:00
9:53 AM,39.9,21.0,47,30.27,10.0,ENE,3.5,-,N/A,,Clear,70,2012-10-18 15:53:00
10:53 AM,46.0,21.9,39,30.25,10.0,NNW,6.9,-,N/A,,Clear,330,2012-10-18 16:53:00
11:53 AM,46.9,23.0,39,30.22,10.0,South,4.6,-,N/A,,Clear,190,2012-10-18 17:53:00
12:53 PM,50.0,21.9,33,30.19,10.0,Variable,4.6,-,N/A,,Clear,0,2012-10-18 18:53:00
1:53 PM,52.0,21.9,31,30.15,10.0,SW,5.8,-,N/A,,Clear,230,2012-10-18 19:53:00
2:53 PM,55.0,21.0,27,30.12,10.0,ESE,3.5,-,N/A,,Clear,110,2012-10-18 20:53:00
3:53 PM,55.9,21.0,26,30.11,10.0,Variable,4.6,-,N/A,,Clear,0,2012-10-18 21:53:00
4:53 PM,57.0,21.0,25,30.10,10.0,SSW,4.6,-,N/A,,Clear,200,2012-10-18 22:53:00
5:53 PM,55.0,21.0,27,30.11,10.0,SSW,5.8,-,N/A,,Clear,200,2012-10-18 23:53:00
6:53 PM,54.0,19.9,26,30.10,10.0,SSW,6.9,-,N/A,,Partly Cloudy,210,2012-10-19 00:53:00
7:53 PM,51.1,21.0,31,30.12,10.0,SSW,10.4,-,N/A,,Clear,210,2012-10-19 01:53:00
8:53 PM,45.0,19.9,37,30.11,10.0,Calm,Calm,-,N/A,,Clear,0,2012-10-19 02:53:00
9:53 PM,48.9,21.0,33,30.08,10.0,WSW,10.4,-,N/A,,Clear,250,2012-10-19 03:53:00
10:53 PM,48.0,19.9,33,30.06,10.0,SW,11.5,-,N/A,,Clear,230,2012-10-19 04:53:00
11:53 PM,46.0,19.9,35,30.04,10.0,SW,12.7,-,N/A,,Clear,230,2012-10-19 05:53:00